RH
85 84 83 83 87 95 98 97 99 100 100 100 100 100 99 100 99 92 100 96 100 95 92 91 92 99 100 100 100 100 100 100 96 96 99 100 100 100 99 100 100 100 98
87 86 88 88 89 94 100 100 98 99 99 100 100 99 100 99 100 94 93 100 100 100 100 94 92 96 95 100 100 98 98 100 100 99 92 99 99 100 98 99 99 100 98
96 94 89 91 91 94 99 99 98 94 99 100 100 100 99 100 98 97 97 100 100 100 99 100 100 100 100 97 99 100 100 96 98 100 87 94 87 91 89 90 58 50 55
95 100 94 89 92 96 98 96 93 92 96 99 99 98 99 98 100 100 99 100 100 100 100 99 100 100 100 100 100 100 99 94 94 99 95 87 83 82 77 54 24 18 14
98 100 99 99 98 97 96 96 93 94 96 99 100 100 99 100 98 99 99 91 97 100 100 100 98 100 100 100 100 100 100 100 96 92 94 76 59 59 47 32 27 19 14
98 99 98 95 97 98 96 97 96 94 96 99 99 99 99 98 100 100 97 100 96 99 100 100 96 96 100 98 100 100 100 100 100 98 91 68 59 43 41 34 27 24 23
98 100 98 96 96 96 96 97 96 96 97 98 99 96 96 97 98 100 100 100 100 98 97 99 98 98 98 97 98 99 98 100 93 77 60 50 47 43 32 27 25 25 28
98 98 98 99 98 98 97 96 97 97 95 96 97 98 96 92 95 98 98 98 98 100 97 99 99 100 95 95 98 96 83 67 59 61 50 45 31 22 16 11 13 31 32
99 98 98 98 99 99 98 97 98 97 97 97 97 96 96 96 93 92 98 95 98 97 96 97 95 98 98 97 97 96 97 92 82 56 47 39 25 20 17 17 14 10 27
98 96 98 98 98 98 98 99 99 98 98 96 96 96 96 96 96 96 94 95 96 95 96 96 96 94 91 95 96 96 96 97 93 58 42 32 24 21 20 19 20 17 15
99 94 93 95 96 94 94 94 92 92 93 96 96 95 96 96 96 96 96 96 95 97 96 96 96 94 97 94 83 96 91 64 49 43 37 30 24 23 20 21 22 24 22
94 87 45 54 67 78 86 89 89 89 94 97 96 96 95 95 96 96 96 98 95 99 96 96 94 94 91 72 95 86 48 46 42 40 38 34 30 26 22 22 28 28 26
93 78 58 38 32 33 46 64 80 89 90 90 90 91 93 95 95 95 95 96 97 95 96 95 95 96 94 90 62 36 36 36 37 35 32 28 25 22 21 21 25 30 28
95 90 81 64 44 35 30 27 30 48 72 87 90 88 87 91 93 95 95 95 95 95 96 96 96 96 96 95 94 66 40 38 33 29 28 26 24 23 22 21 21 21 21
85 81 70 59 46 40 36 33 30 25 24 33 61 84 94 92 91 91 92 96 96 95 95 96 96 96 96 96 96 95 94 68 41 38 35 31 29 27 26 24 23 23 23
63 81 56 49 46 38 36 36 32 30 29 26 22 24 42 75 91 93 93 92 91 95 96 96 95 95 95 96 96 95 96 96 96 96 90 91 95 83 53 33 28 26 26
63 63 62 53 47 42 38 36 36 35 33 31 30 28 25 24 29 54 87 94 93 93 93 94 95 96 95 95 96 97 96 96 96 96 97 96 96 95 95 93 93 78 63
57 53 52 50 50 48 42 39 37 36 36 36 36 34 33 31 28 27 28 39 74 95 94 93 94 94 94 96 96 96 97 96 95 95 95 94 94 96 96 96 96 95 95
62 60 59 56 54 56 51 48 46 42 38 35 35 38 39 38 38 35 32 31 30 35 50 90 96 94 92 95 95 95 95 96 96 95 93 94 96 95 95 93 95 96 96
75 66 65 60 54 52 50 49 50 49 49 45 41 38 40 43 42 41 40 38 37 36 36 46 79 99 100 100 98 98 95 95 94 94 96 96 95 92 97 95 95 93 90
80 86 92 75 62 55 54 53 54 54 54 52 52 50 47 42 42 42 43 42 41 41 39 38 36 43 57 74 96 98 97 97 98 97 95 93 93 96 98 98 95 87 80
71 71 78 76 73 74 67 62 59 63 59 56 55 56 54 52 50 47 46 47 46 44 40 41 37 35 34 37 65 100 100 97 96 94 95 96 100 100 98 96 93 95 96
68 68 70 75 77 84 91 89 72 79 75 69 65 63 61 56 55 56 52 50 55 63 56 63 64 52 52 48 69 100 100 96 96 97 98 100 100 99 97 98 100 100 96
70 70 70 69 72 82 84 87 91 90 85 72 65 64 65 73 95 92 76 73 58 64 75 75 64 59 54 48 41 44 55 82 94 94 95 98 99 98 96 100 98 96 97
68 68 66 62 58 62 68 77 82 96 95 87 76 69 69 72 82 92 94 97 92 96 91 78 78 74 68 64 91 94 74 56 42 42 43 65 82 89 87 91 96 97 94
47 51 52 54 52 59 64 73 75 79 78 75 75 74 93 98 100 100 96 90 100 100 100 100 99 94 98 99 100 100 96 97 100 96 77 60 47 39 36 34 33 38 50
Wind_Speed
17 14 15 14 14 14 13 11 14 16 15 22 23 30 34 34 37 40 34 36 33 34 34 34 35 33 33 32 33 36 36 43 42 35 37 34 37 33 30 26 27 25 23
22 19 17 14 15 14 15 8 10 13 11 15 20 21 25 29 27 40 33 37 38 36 36 37 36 36 35 35 39 39 40 45 47 42 37 19 17 21 22 19 18 22 21
28 24 20 18 14 14 15 12 9 10 10 9 14 19 20 20 22 27 28 29 36 40 39 35 38 38 37 35 37 42 45 46 45 36 24 18 8 19 13 18 16 18 20
24 24 23 20 18 14 12 10 9 10 8 6 8 11 16 17 19 20 31 27 21 33 37 40 34 36 39 41 40 41 42 48 44 40 33 27 20 20 16 19 19 20 21
21 22 23 23 19 15 15 12 10 9 8 6 5 6 8 10 13 17 20 20 21 26 32 33 33 27 34 38 43 46 46 44 45 47 36 27 22 26 30 29 29 24 23
23 23 22 21 22 19 17 17 14 12 10 8 5 3 4 3 6 9 10 20 21 18 21 25 30 32 28 30 32 39 44 45 44 42 40 36 34 31 28 24 34 30 26
25 28 29 28 26 24 23 21 18 18 14 11 8 6 4 3 2 4 9 11 15 16 16 20 27 32 31 27 26 28 31 37 38 38 37 32 29 27 28 28 38 35 28
25 27 28 28 28 26 24 22 21 20 17 15 14 11 8 6 5 2 3 6 8 12 13 17 22 26 27 28 26 32 32 29 29 34 31 30 27 24 26 28 36 31 27
23 25 27 28 28 27 27 25 22 21 19 17 15 14 13 11 8 5 2 1 7 6 10 10 11 20 21 26 27 22 24 30 30 27 31 27 26 24 25 24 29 33 28
21 21 23 25 25 26 25 24 23 23 20 18 17 15 14 12 10 8 5 1 2 7 10 8 11 8 8 14 17 18 22 24 28 29 28 28 27 25 24 23 27 31 24
17 18 19 20 21 22 23 23 23 23 22 20 17 14 13 11 10 8 7 4 2 4 6 8 8 6 11 14 12 17 21 24 25 24 25 26 25 24 24 25 27 29 26
14 15 18 18 19 20 20 20 20 20 20 19 17 16 13 11 10 9 7 5 3 2 2 5 6 9 8 9 13 16 17 19 20 21 21 22 22 23 24 27 28 27 25
12 13 14 17 18 18 17 17 16 16 15 15 14 13 13 12 11 9 7 5 3 1 3 7 8 11 12 10 11 12 15 16 17 18 18 18 19 20 21 22 23 24 23
9 10 13 15 15 15 15 14 13 13 11 10 10 10 10 10 9 9 7 5 2 2 2 4 9 12 13 14 13 12 12 14 14 13 12 12 13 15 16 17 17 17 17
8 10 11 12 13 13 14 14 12 11 11 9 8 8 8 7 6 5 5 4 4 2 1 5 6 7 9 12 15 15 18 16 15 16 17 16 15 14 14 14 14 15 15
7 8 10 11 12 13 13 13 13 13 12 10 9 9 8 8 7 6 5 5 5 4 3 3 5 8 11 11 10 14 17 19 23 23 19 15 14 15 15 15 17 18 18
8 8 10 11 12 12 13 13 13 12 12 13 12 10 9 9 9 9 8 8 8 9 9 9 9 9 9 10 12 6 9 13 17 19 20 23 26 26 26 25 25 25 25
11 10 9 10 10 10 11 11 12 12 13 12 13 14 13 11 11 11 11 11 11 11 11 13 14 14 14 12 11 12 14 9 10 14 16 19 22 23 24 24 26 26 27
13 11 11 12 12 13 13 13 11 11 11 14 14 13 14 15 15 13 12 13 14 14 13 13 14 16 17 17 16 15 18 19 19 14 13 17 18 20 20 23 24 25 27
14 13 12 11 12 12 13 14 14 14 13 11 11 13 15 15 15 16 15 14 14 15 16 15 13 13 12 14 14 15 17 20 22 24 24 17 15 18 17 20 22 23 24
15 15 16 17 14 14 14 14 14 14 15 15 15 14 13 15 17 18 16 17 16 16 16 18 19 19 19 19 17 15 15 16 15 18 22 24 27 23 19 21 24 27 25
16 15 16 17 16 16 15 13 13 14 15 16 16 16 16 16 15 16 19 18 17 18 19 19 18 18 19 20 20 18 19 19 20 22 21 20 18 19 22 27 30 27 21
17 16 17 18 18 16 15 18 16 16 16 15 16 16 17 17 16 15 16 18 18 18 17 16 17 17 16 17 17 17 20 21 23 24 23 20 19 20 23 23 23 23 26
18 17 18 19 19 17 17 18 18 17 17 18 17 18 19 18 16 17 17 17 18 20 22 20 18 16 15 13 13 17 19 21 24 26 24 24 23 25 29 27 26 27 29
21 20 21 21 21 19 18 16 16 16 21 22 20 19 19 17 14 13 14 14 15 17 18 19 17 14 15 12 16 14 15 13 14 16 20 27 31 30 26 26 25 24 26
25 24 23 22 21 20 20 21 21 22 23 23 21 20 16 16 17 19 22 17 16 17 19 21 23 24 24 21 20 20 18 18 20 20 21 18 17 18 20 23 25 28 28
Wind_Direction
13 29 45 57 72 34 343 308 273 272 256 246 228 221 212 205 206 202 190 206 199 203 204 206 205 205 208 205 203 201 203 180 187 201 155 152 161 159 161 156 156 163 172
22 27 33 49 54 53 56 352 310 287 279 250 246 231 223 220 200 206 198 194 201 202 203 205 206 205 208 206 203 204 200 183 179 172 171 152 156 158 161 167 173 175 177
22 20 27 25 31 38 33 26 354 315 299 258 253 248 245 240 216 205 214 201 196 199 199 205 205 210 209 207 207 199 199 191 188 188 204 153 172 169 174 180 184 184 187
26 24 28 31 26 22 11 5 352 335 333 302 271 257 256 256 247 231 216 223 208 206 200 205 202 206 204 205 204 209 205 204 204 193 189 201 214 174 179 194 201 198 195
31 28 35 38 39 36 31 18 11 7 8 356 322 300 269 267 268 246 235 238 229 205 209 204 204 203 210 204 204 202 207 209 207 198 193 187 193 200 184 182 190 196 198
39 39 46 50 51 52 50 45 36 31 25 19 6 344 345 299 262 264 245 237 240 227 213 211 203 204 205 206 209 208 205 204 206 203 201 200 197 197 198 191 189 191 189
45 44 48 50 51 53 58 57 54 53 47 43 41 35 20 2 289 264 242 240 241 239 241 226 212 204 211 202 208 210 215 209 209 203 200 204 206 208 205 205 188 182 186
50 52 54 54 55 56 59 63 63 62 59 56 57 55 48 40 27 323 319 254 237 227 222 222 214 214 209 207 214 212 206 212 219 214 213 210 207 209 210 207 195 175 182
51 53 56 56 58 59 59 61 63 67 67 64 59 57 57 52 43 28 350 322 224 215 208 208 209 216 207 211 210 209 211 214 217 221 219 212 208 204 203 205 205 204 181
51 51 53 54 55 58 61 65 65 64 64 67 67 62 59 54 58 63 54 96 218 193 177 180 175 179 199 211 222 232 227 223 218 218 214 211 205 203 200 202 199 204 212
53 46 49 51 51 53 54 55 58 61 62 62 62 66 67 72 71 61 65 93 136 202 180 164 143 159 197 195 206 214 219 218 214 210 208 208 204 207 204 205 204 207 213
55 47 44 46 46 46 46 47 49 51 54 56 59 63 65 62 64 78 78 47 48 167 206 183 171 172 171 190 210 213 214 211 212 212 207 206 204 204 203 204 205 209 214
48 40 37 39 39 39 38 38 39 43 43 44 47 53 59 60 58 57 55 73 86 310 214 189 195 193 184 176 204 189 206 217 214 209 208 205 203 201 201 200 201 203 205
36 30 25 21 27 28 29 29 30 30 28 30 33 35 38 41 47 50 53 59 59 136 195 235 222 209 203 195 199 198 187 182 192 197 194 196 201 202 202 199 198 198 196
25 10 10 7 8 14 15 17 19 18 17 12 9 14 16 12 10 7 16 27 35 43 250 230 228 231 231 223 222 218 214 211 201 180 177 190 197 201 208 209 210 211 206
9 353 356 353 357 2 6 5 4 5 8 4 358 355 345 336 332 330 319 307 307 304 296 278 252 242 235 231 238 242 241 237 238 238 231 226 223 217 216 215 211 215 218
347 345 337 341 346 348 355 356 356 357 352 349 348 345 336 326 320 314 305 297 286 279 277 274 267 259 247 234 225 203 268 254 246 241 237 232 235 236 234 234 236 232 231
331 328 326 332 333 333 343 347 343 345 345 345 339 335 333 328 316 308 302 298 290 281 273 268 268 267 262 254 244 231 235 245 246 246 247 247 245 242 241 239 238 238 240
322 322 324 323 329 328 329 338 340 340 337 332 332 331 326 323 320 312 302 293 287 284 282 278 272 270 265 261 256 253 251 248 248 245 245 247 250 249 247 247 245 243 241
321 321 321 318 320 320 319 321 325 329 329 329 323 318 318 318 315 312 310 302 292 284 278 270 265 267 267 265 260 258 258 258 255 254 247 234 250 248 237 236 250 254 255
308 314 311 313 318 319 318 313 311 314 316 319 320 317 310 306 306 306 305 302 299 291 285 279 273 269 265 264 263 260 250 255 257 257 252 253 243 238 238 239 250 258 268
300 304 305 307 311 311 310 312 313 307 304 306 308 309 309 309 303 298 298 298 296 294 293 289 283 276 271 265 263 262 256 260 262 259 252 249 247 246 244 242 241 245 251
303 300 298 297 300 302 300 303 311 306 301 296 301 304 306 306 306 297 292 291 296 297 292 291 292 290 283 272 263 264 261 259 257 261 261 262 256 251 249 247 248 247 245
291 293 288 287 289 289 290 287 290 297 300 302 304 304 304 305 302 297 299 295 290 290 290 288 286 291 297 299 291 273 261 251 246 242 242 244 249 251 252 253 248 243 245
285 283 284 286 289 289 286 285 287 282 283 288 292 295 294 296 294 292 294 300 302 303 296 295 298 298 300 307 302 293 283 276 274 262 253 250 250 250 247 245 247 247 245
290 287 287 288 291 290 289 287 286 283 282 283 285 289 289 287 280 277 280 278 279 283 278 276 280 289 293 288 281 273 269 266 260 256 256 256 252 251 252 254 255 256 255